Location: Edisto_Beach
(32.4790°N, 80.3350°W)
Time: 04:17:34
(UTC-04:00)

Amateur Radio Satellites - All Passes

Search period start: 02 May 2016 03:47
Search period end: 03 May 2016 03:47
Location: Edisto_Beach, 32.4790°N, 80.3350°W

Satellite Date Start Highest point End Downlink Frequencies (MHz)
Time Altitude Azimuth
ITAMSAT 1 02 May 03:59:55 04:05:04 65° 102° (ESE) 04:10:12 435.822/435.867
Gurwin Techsat 1B 02 May 04:09:35 04:14:29 39° 288° (WNW) 04:19:23 435.225
AO-7 02 May 04:17:43 04:25:08 34° 99° (E) 04:32:29 29.400- 29.500
MOZHAYETS 4 02 May 04:19:16 04:23:40 49° 74° (ENE) 04:28:05
CUSAT 1 02 May 04:22:13 04:28:19 27° 271° (W) 04:34:46 437.405
KKS-1 02 May 04:23:07 04:27:35 85° 254° (WSW) 04:32:06 437.445
JAS-2 02 May 04:24:19 04:28:17 15° 300° (WNW) 04:32:15 435.910
Oscar 19 02 May 04:26:23 04:27:27 11° 297° (WNW) 04:28:31 437.125/150
BEESAT 3 02 May 04:27:37 04:31:28 50° 60° (ENE) 04:35:17 437.485
BEESAT 2 02 May 04:33:12 04:36:48 32° 57° (ENE) 04:40:23 435.950
STARS 02 May 04:42:26 04:46:51 80° 76° (ENE) 04:51:18 437.465
DANDE 02 May 04:55:23 05:01:12 29° 269° (W) 05:07:50 436.750
RS-15 02 May 05:10:39 05:18:01 17° 30° (NNE) 05:25:24 29.354- 29.394
ITAMSAT 1 02 May 05:41:49 05:43:55 12° 296° (WNW) 05:46:02 435.822/435.867
HORYU 2 02 May 05:46:11 05:50:30 52° 101° (E) 05:54:47 437.375
AIST 2 02 May 05:57:47 06:00:46 19° 53° (NE) 06:03:44 435.215
MOZHAYETS 4 02 May 05:59:21 06:01:02 12° 267° (W) 06:02:43
CUBESAT XI-V 02 May 06:01:38 06:06:11 68° 76° (ENE) 06:10:46 437.345
NOAA 15 02 May 06:08:56 06:11:40 14° 93° (E) 06:14:24 137.62
AO-7 02 May 06:10:07 06:17:52 45° 294° (WNW) 06:25:39 29.400- 29.500
BEESAT 2 02 May 06:12:01 06:14:20 15° 251° (WSW) 06:16:40 435.950
YUBILEINY 02 May 06:24:58 06:33:16 47° 79° (ENE) 06:41:31 435.215
ISS 02 May 06:34:07 06:35:47 13° 126° (SE) 06:37:27 145.825
Cosmos 2504 02 May 06:41:29 06:42:26 10° 68° (ENE) 06:43:23 435.465 / 435.565
GOMX 1 02 May 06:57:04 06:59:42 14° 91° (E) 07:02:15 467.674
STRAND 1 02 May 06:59:11 07:03:10 23° 68° (ENE) 07:07:08 437.568
CUTE-I 02 May 07:01:38 07:06:22 32° 98° (E) 07:11:06 437.470
Cosmos 2491 02 May 07:01:50 07:10:12 50° 89° (E) 07:18:36 435.465 / 435.565
NOAA 18 02 May 07:06:52 07:12:09 50° 101° (E) 07:17:24 137.9125
BRITE-PL 02 May 07:16:36 07:22:09 51° 99° (E) 07:27:31 437.365/2234.400
RS-15 02 May 07:21:48 07:33:56 58° 57° (ENE) 07:45:56 29.354- 29.394
HORYU 2 02 May 07:25:07 07:26:32 11° 294° (WNW) 07:27:58 437.375
SO-50 02 May 07:25:10 07:29:56 56° 115° (ESE) 07:34:46 436.795
AIST 2 02 May 07:35:37 07:39:16 30° 248° (WSW) 07:42:54 435.215
M-CUBED/EXP-1 PRIME 02 May 07:40:18 07:42:55 18° 99° (E) 07:45:25 437.505
Cubesat XI-IV 02 May 07:45:17 07:50:38 89° 284° (WNW) 07:55:58 437.490
NOAA 15 02 May 07:46:31 07:51:42 56° 287° (WNW) 07:56:53 137.62
LilacSat-2 02 May 07:47:58 07:51:45 67° 283° (WNW) 07:55:29 437.200
PRISM 02 May 07:50:45 07:52:14 12° 67° (ENE) 07:53:44 437.425
AUBIESAT-1 02 May 07:59:14 08:02:23 25° 101° (E) 08:05:21 437.475
ISS 02 May 08:08:52 08:11:57 38° 320° (NW) 08:15:02 145.825
YUBILEINY 02 May 08:22:21 08:29:38 31° 275° (W) 08:36:57 435.215
Cosmos 2504 02 May 08:29:03 08:36:45 78° 83° (E) 08:45:02 435.465 / 435.565
CUTE 1.7 + AOD 2 02 May 08:30:44 08:33:08 15° 94° (E) 08:35:32 437.475
GOMX 1 02 May 08:32:48 08:38:07 58° 285° (WNW) 08:43:11 467.674
DOVE 4 02 May 08:32:53 08:37:58 68° 101° (E) 08:42:44 437.250
STRAND 1 02 May 08:37:35 08:42:07 32° 262° (W) 08:46:40 437.568
CUTE-I 02 May 08:41:56 08:46:12 25° 291° (WNW) 08:50:28 437.470
NOAA 18 02 May 08:48:49 08:52:21 18° 295° (WNW) 08:55:52 137.9125
BRITE-PL 02 May 08:56:14 09:00:06 19° 293° (WNW) 09:03:56 437.365/2234.400
SEEDS 02 May 08:58:33 09:01:55 23° 96° (E) 09:05:16 437.485
Cosmos 2491 02 May 08:59:48 09:07:13 30° 286° (WNW) 09:14:42 435.465 / 435.565
COMPASS 1 02 May 09:03:41 09:06:37 18° 95° (E) 09:09:32 437.405
SO-50 02 May 09:07:42 09:10:46 16° 310° (NW) 09:13:50 436.795
M-CUBED/EXP-1 PRIME 02 May 09:14:26 09:17:26 22° 295° (WNW) 09:20:17 437.505
CINEMA 3 02 May 09:21:58 09:26:33 69° 101° (E) 09:30:53 145.822/145.860
HO-68 02 May 09:22:37 09:29:44 66° 103° (ESE) 09:36:49 435.675
PRISM 02 May 09:23:17 09:27:08 42° 261° (W) 09:31:01 437.425
CANX-2 02 May 09:31:56 09:36:09 77° 282° (WNW) 09:40:22 2200.000
AUBIESAT-1 02 May 09:34:18 09:36:38 16° 297° (WNW) 09:38:52 437.475
AAUSAT CUBESAT 2 02 May 09:34:30 09:38:20 35° 98° (E) 09:42:08 437.432
RS-15 02 May 09:35:05 09:45:51 38° 255° (WSW) 09:56:31 29.354- 29.394
Oscar 11 02 May 09:48:37 09:51:46 20° 95° (E) 09:54:53 145.826/435.025
TIGRISAT 02 May 09:56:50 09:59:12 14° 67° (ENE) 10:01:33 435.000
FUNcube-1 02 May 09:59:13 10:02:19 20° 95° (E) 10:05:22 145.935
PHONESAT 2.4 02 May 09:59:58 10:03:00 46° 148° (SSE) 10:06:01 2401.200-2431.200
CUTE 1.7 + AOD 2 02 May 10:05:13 10:09:01 34° 287° (WNW) 10:12:49 437.475
UWE-3 02 May 10:08:04 10:12:07 44° 99° (E) 10:16:05 435.000/436.395/437.385
DOVE 4 02 May 10:13:27 10:14:54 11° 296° (WNW) 10:16:20 437.250
CUBEBUG 2 02 May 10:13:56 10:18:14 83° 99° (E) 10:22:24 437.445
ANTELSAT 02 May 10:19:35 10:23:29 27° 71° (ENE) 10:27:20 437.575/2403.000
Cosmos 2504 02 May 10:25:08 10:29:18 16° 277° (W) 10:33:37 435.465 / 435.565
SEEDS 02 May 10:34:16 10:37:28 21° 289° (WNW) 10:40:40 437.485
COMPASS 1 02 May 10:38:39 10:42:07 26° 288° (WNW) 10:45:37 437.405
ZACube-1 02 May 10:40:12 10:44:24 75° 102° (ESE) 10:48:31 437.345
DELFI C3 02 May 10:53:31 10:57:26 57° 100° (E) 11:01:22 145.870
NANOSAT C BR1 02 May 11:08:06 11:10:30 15° 68° (ENE) 11:12:55 145.865
AAUSAT CUBESAT 2 02 May 11:11:15 11:13:28 14° 291° (WNW) 11:15:41 437.432
HO-68 02 May 11:11:53 11:16:46 20° 298° (WNW) 11:21:40 435.675
UNISAT 6 02 May 11:13:00 11:17:40 73° 259° (W) 11:22:17 437.425
Oscar 11 02 May 11:24:13 11:27:50 27° 288° (WNW) 11:31:26 145.826/435.025
TIGRISAT 02 May 11:30:57 11:35:28 47° 261° (W) 11:39:55 435.000
FUNcube-1 02 May 11:35:07 11:38:28 24° 289° (WNW) 11:41:47 145.935
PHONESAT 2.4 02 May 11:37:05 11:39:55 30° 343° (NNW) 11:42:47 2401.200-2431.200
ESTCUBE 1 02 May 11:45:59 11:48:51 16° 95° (E) 11:51:42 437.505/2401.250
UWE-3 02 May 11:46:40 11:48:07 12° 293° (WNW) 11:49:33 435.000/436.395/437.385
HUMSAT D 02 May 11:49:08 11:53:11 68° 283° (WNW) 11:57:12 437.325/437.525
ANTELSAT 02 May 11:56:20 12:00:05 24° 264° (W) 12:03:48 437.575/2403.000
QB50P2 02 May 11:58:11 12:02:26 69° 77° (ENE) 12:06:43 145.880/145.840
DUCHIFAT 1 02 May 11:58:45 12:02:56 59° 75° (ENE) 12:07:09 145.980
POLYITAN 1 02 May 12:00:19 12:04:35 71° 76° (ENE) 12:08:53 437.675
POPSAT HIP 1 02 May 12:03:05 12:07:21 74° 76° (ENE) 12:11:38 437.405
AIST 1 02 May 12:05:08 12:09:19 41° 80° (E) 12:13:27
QB50P1 02 May 12:06:22 12:10:38 83° 79° (ENE) 12:14:57 145.935-145.965
CUBEBUG 1 02 May 12:08:12 12:11:29 20° 95° (E) 12:14:45 437.445
GONETS M04 02 May 12:09:11 12:17:39 50° 79° (E) 12:25:59
50 SAT 02 May 12:24:01 12:27:24 35° 99° (E) 12:30:46 437.505
DX 1 02 May 12:32:16 12:36:16 34° 99° (E) 12:40:15 434.975-435.025
VELOX 1 02 May 12:33:09 12:37:22 40° 99° (E) 12:41:33 145.980
Cosmos 2499 02 May 12:37:12 12:44:31 41° 79° (ENE) 12:52:18 435.465 / 435.565
UKube-1 02 May 12:39:52 12:43:49 33° 99° (E) 12:47:44 .
NANOSAT C BR1 02 May 12:41:57 12:45:53 36° 262° (W) 12:49:50 145.865
BUGSAT 1 02 May 12:43:05 12:47:17 86° 257° (WSW) 12:51:34 437.445
JAS-2 02 May 12:45:06 12:49:46 25° 65° (ENE) 12:54:55 435.910
AO-85 02 May 12:46:00 12:51:09 47° 113° (ESE) 12:56:22 145.980
AISAT 02 May 13:04:58 13:09:27 76° 283° (WNW) 13:13:53 437.250
SPROUT 02 May 13:10:45 13:14:47 39° 99° (E) 13:18:46 437.525
PHONESAT 2.4 02 May 13:15:03 13:17:21 18° 360° (N) 13:19:40 2401.200-2431.200
ESTCUBE 1 02 May 13:21:34 13:25:42 36° 288° (WNW) 13:29:50 437.505/2401.250
CUBEBUG 1 02 May 13:43:57 13:47:43 28° 289° (WNW) 13:51:29 437.445
AIST 1 02 May 13:44:41 13:46:27 12° 274° (W) 13:48:13
TISAT 1 02 May 13:47:08 13:50:45 27° 97° (E) 13:54:20 437.305
Gurwin Techsat 1B 02 May 13:47:26 13:51:22 22° 68° (ENE) 13:55:18 435.225
Oscar 19 02 May 13:55:44 14:00:51 69° 75° (ENE) 14:06:01 437.125/150
50 SAT 02 May 13:59:55 14:00:49 11° 292° (WNW) 14:01:43 437.505
GONETS M04 02 May 14:06:52 14:13:55 29° 275° (W) 14:20:58
DX 1 02 May 14:09:21 14:12:09 17° 292° (WNW) 14:14:55 434.975-435.025
VELOX 1 02 May 14:10:58 14:13:27 15° 293° (WNW) 14:15:54 145.980
O/OREOS (USA 219) 02 May 14:14:43 14:16:40 13° 99° (E) 14:18:38 437.305
UKube-1 02 May 14:16:49 14:19:33 17° 292° (WNW) 14:22:16 .
AO-85 02 May 14:27:39 14:31:52 23° 308° (NW) 14:36:06 145.980
JAS-2 02 May 14:29:08 14:34:28 40° 263° (W) 14:40:28 435.910
Cosmos 2499 02 May 14:30:33 14:37:22 34° 272° (W) 14:44:40 435.465 / 435.565
ISS 02 May 14:40:21 14:43:04 24° 37° (NE) 14:45:46 145.825
SPROUT 02 May 14:48:07 14:50:21 14° 292° (WNW) 14:52:34 437.525
PHONESAT 2.4 02 May 14:51:58 14:54:48 30° 16° (NNE) 14:57:38 2401.200-2431.200
ITUPSAT 1 02 May 15:01:31 15:05:47 32° 98° (E) 15:10:02 437.325
SWISSCUBE 02 May 15:10:56 15:15:33 47° 100° (E) 15:20:07 437.505
AO-7 02 May 15:12:09 15:19:12 32° 63° (ENE) 15:26:15 29.400- 29.500
ITAMSAT 1 02 May 15:13:15 15:18:21 62° 74° (ENE) 15:23:28 435.822/435.867
TISAT 1 02 May 15:23:14 15:26:11 19° 291° (WNW) 15:29:07 437.305
Gurwin Techsat 1B 02 May 15:26:05 15:31:00 38° 261° (W) 15:35:56 435.225
Oscar 19 02 May 15:39:41 15:40:33 10° 268° (W) 15:41:26 437.125/150
CUSAT 1 02 May 15:40:13 15:43:14 48° 93° (E) 15:47:03 437.405
PCSat 02 May 15:43:42 15:48:52 47° 110° (ESE) 15:54:03 145.827
BEESAT 02 May 15:44:05 15:48:51 80° 284° (WNW) 15:53:37 436.000
O/OREOS (USA 219) 02 May 15:51:11 15:55:35 46° 292° (WNW) 16:00:01 437.305
SO-50 02 May 16:02:29 16:05:20 16° 49° (NE) 16:08:07 436.795
ISS 02 May 16:16:47 16:19:27 23° 231° (SW) 16:22:06 145.825
KKS-1 02 May 16:19:13 16:22:58 26° 97° (E) 16:26:40 437.445
DANDE 02 May 16:19:44 16:22:19 46° 94° (E) 16:25:20 436.750
MOZHAYETS 4 02 May 16:19:57 16:22:53 17° 94° (E) 16:25:48
PHONESAT 2.4 02 May 16:28:41 16:31:45 49° 211° (SSW) 16:34:50 2401.200-2431.200
STARS 02 May 16:37:21 16:40:37 20° 96° (E) 16:43:52 437.465
ITUPSAT 1 02 May 16:39:51 16:43:22 21° 291° (WNW) 16:46:53 437.325
HORYU 2 02 May 16:39:58 16:43:46 27° 71° (ENE) 16:47:33 437.375
SWISSCUBE 02 May 16:50:20 16:52:53 15° 294° (WNW) 16:55:26 437.505
ITAMSAT 1 02 May 16:56:19 16:58:08 12° 267° (W) 16:59:57 435.822/435.867
AO-7 02 May 17:03:41 17:11:35 49° 258° (WSW) 17:19:33 29.400- 29.500
Cosmos 2491 02 May 17:19:33 17:25:20 19° 69° (ENE) 17:31:04 435.465 / 435.565
NOAA 15 02 May 17:24:51 17:27:49 15° 65° (ENE) 17:30:46 137.62
PCSat 02 May 17:28:31 17:32:28 20° 306° (NW) 17:36:27 145.827
SO-50 02 May 17:41:36 17:46:07 50° 246° (WSW) 17:50:27 436.795
KKS-1 02 May 17:55:54 17:59:21 22° 290° (WNW) 18:02:47 437.445
MOZHAYETS 4 02 May 17:55:56 18:00:05 35° 287° (WNW) 18:04:15
CUBESAT XI-V 02 May 18:03:19 18:07:08 24° 96° (E) 18:10:57 437.345
STARS 02 May 18:13:12 18:16:55 27° 289° (WNW) 18:20:36 437.465
BEESAT 3 02 May 18:14:27 18:17:45 26° 112° (ESE) 18:21:05 437.485
HORYU 2 02 May 18:16:52 18:20:15 21° 264° (W) 18:23:38 437.375
CUTE-I 02 May 18:18:59 18:23:46 34° 71° (ENE) 18:28:32 437.470
BEESAT 2 02 May 18:21:51 18:24:32 18° 110° (ESE) 18:27:14 435.950
M-CUBED/EXP-1 PRIME 02 May 18:22:07 18:25:03 17° 63° (ENE) 18:27:59 437.505
BRITE-PL 02 May 18:23:03 18:27:12 32° 70° (ENE) 18:31:41 437.365/2234.400
JUGNU 02 May 18:24:01 18:27:58 18° 169° (S) 18:31:56 437.505
LilacSat-2 02 May 18:25:34 18:28:55 28° 73° (ENE) 18:32:17 437.200
NOAA 18 02 May 18:28:28 18:33:54 61° 74° (ENE) 18:39:20 137.9125
AUBIESAT-1 02 May 18:40:27 18:43:55 21° 65° (ENE) 18:47:23 437.475
NOAA 15 02 May 19:01:55 19:07:03 55° 259° (W) 19:12:14 137.62
Cubesat XI-IV 02 May 19:02:37 19:07:57 86° 258° (WSW) 19:13:19 437.490
Cosmos 2491 02 May 19:14:10 19:22:58 75° 266° (W) 19:31:40 435.465 / 435.565
STRAND 1 02 May 19:16:27 19:17:35 11° 92° (E) 19:18:45 437.568
YUBILEINY 02 May 19:19:35 19:28:10 63° 91° (E) 19:36:42 435.215
SRMSAT 02 May 19:24:23 19:26:51 13° 163° (SSE) 19:29:20 437.500
DOVE 4 02 May 19:32:57 19:37:39 41° 73° (ENE) 19:42:33 437.250
GOMX 1 02 May 19:35:21 19:40:15 89° 265° (W) 19:45:31 467.674
CUBESAT XI-V 02 May 19:40:30 19:44:23 26° 289° (WNW) 19:48:17 437.345
HO-68 02 May 19:46:51 19:52:55 31° 65° (ENE) 19:58:58 435.675
BEESAT 3 02 May 19:52:30 19:55:25 20° 306° (NW) 19:58:21 437.485
AIST 2 02 May 19:53:13 19:54:15 11° 107° (ESE) 19:55:17 435.215
M-CUBED/EXP-1 PRIME 02 May 19:54:40 19:59:11 46° 257° (WSW) 20:03:42 437.505
BEESAT 2 02 May 19:58:41 20:02:08 28° 303° (WNW) 20:05:38 435.950
CUTE-I 02 May 19:59:37 20:03:47 23° 264° (W) 20:07:59 437.470
LilacSat-2 02 May 20:01:01 20:03:13 15° 266° (W) 20:05:27 437.200
BRITE-PL 02 May 20:02:10 20:05:43 21° 267° (W) 20:09:29 437.365/2234.400
JUGNU 02 May 20:11:45 20:16:22 24° 179° (S) 20:21:02 437.505
NOAA 18 02 May 20:12:13 20:14:52 14° 267° (W) 20:17:30 137.9125
AUBIESAT-1 02 May 20:13:57 20:18:08 33° 258° (WSW) 20:22:20 437.475
CINEMA 3 02 May 20:18:11 20:22:47 38° 73° (ENE) 20:27:25 145.822/145.860
CANX-2 02 May 20:20:05 20:24:01 39° 74° (ENE) 20:27:57 2200.000
AAUSAT CUBESAT 2 02 May 20:21:57 20:23:59 13° 68° (ENE) 20:26:00 437.432
STRAND 1 02 May 20:52:03 20:57:07 66° 285° (WNW) 21:02:11 437.568
FUNcube-1 02 May 20:52:29 20:53:26 11° 67° (ENE) 20:54:23 145.935
CUTE 1.7 + AOD 2 02 May 20:52:35 20:56:48 90° 115° (ESE) 21:01:02 437.475
UWE-3 02 May 21:00:37 21:04:16 23° 71° (ENE) 21:07:52 435.000/436.395/437.385
Cosmos 2504 02 May 21:02:19 21:09:40 74° 94° (E) 21:16:48 435.465 / 435.565
CUBEBUG 2 02 May 21:06:51 21:11:16 40° 74° (ENE) 21:15:39 437.445
PRISM 02 May 21:09:18 21:13:07 34° 99° (E) 21:16:55 437.425
SRMSAT 02 May 21:10:57 21:15:23 22° 172° (S) 21:19:50 437.500
DOVE 4 02 May 21:12:01 21:15:27 18° 267° (W) 21:19:01 437.250
YUBILEINY 02 May 21:18:52 21:25:26 23° 288° (WNW) 21:32:01 435.215
SEEDS 02 May 21:20:19 21:24:25 56° 260° (W) 21:28:32 437.485
COMPASS 1 02 May 21:23:57 21:28:04 75° 259° (W) 21:32:12 437.405
AO-85 02 May 21:24:56 21:26:46 12° 46° (NE) 21:28:33 145.980
AIST 2 02 May 21:28:16 21:32:15 48° 300° (WNW) 21:36:17 435.215
ZACube-1 02 May 21:31:12 21:35:17 33° 73° (ENE) 21:39:18 437.345
HO-68 02 May 21:33:38 21:40:20 43° 260° (W) 21:47:04 435.675
DELFI C3 02 May 21:36:08 21:38:47 18° 70° (ENE) 21:41:26 145.870
RS-15 02 May 21:38:57 21:49:40 57° 110° (ESE) 22:00:57 29.354- 29.394
AAUSAT CUBESAT 2 02 May 21:55:18 21:59:06 36° 262° (W) 22:02:55 437.432
CINEMA 3 02 May 21:56:27 21:59:58 19° 266° (W) 22:03:30 145.822/145.860
CANX-2 02 May 21:58:09 22:00:00 13° 267° (W) 22:01:50 2200.000
JUGNU 02 May 22:00:34 22:04:49 20° 189° (S) 22:09:04 437.505
Oscar 11 02 May 22:13:27 22:17:43 64° 259° (W) 22:22:00 145.826/435.025
FUNcube-1 02 May 22:24:40 22:29:09 59° 260° (W) 22:33:35 145.935
HUMSAT D 02 May 22:35:36 22:39:37 42° 74° (ENE) 22:43:35 437.325/437.525
UWE-3 02 May 22:36:36 22:40:32 27° 263° (W) 22:44:28 435.000/436.395/437.385
CUBEBUG 2 02 May 22:45:01 22:47:57 16° 266° (W) 22:50:53 437.445
PRISM 02 May 22:45:42 22:48:05 15° 292° (WNW) 22:50:29 437.425
SRMSAT 02 May 22:59:18 23:03:59 24° 183° (S) 23:08:41 437.500
Cosmos 2504 02 May 22:59:52 23:03:38 15° 290° (WNW) 23:07:23 435.465 / 435.565
AO-85 02 May 23:03:15 23:07:49 66° 245° (WSW) 23:11:58 145.980
ZACube-1 02 May 23:08:30 23:11:34 18° 265° (W) 23:14:37 437.345
UNISAT 6 02 May 23:09:55 23:13:45 31° 97° (E) 23:17:32 437.425
DELFI C3 02 May 23:10:11 23:13:27 25° 263° (W) 23:16:43 145.870
DX 1 02 May 23:24:15 23:27:07 17° 68° (ENE) 23:30:00 434.975-435.025
VELOX 1 02 May 23:26:37 23:29:56 21° 69° (ENE) 23:33:15 145.980
TIGRISAT 02 May 23:27:13 23:31:23 48° 100° (E) 23:35:29 435.000
UKube-1 02 May 23:31:00 23:33:43 17° 68° (ENE) 23:36:27 .
QB50P2 02 May 23:49:06 23:51:42 16° 95° (E) 23:54:16 145.880/145.840
DUCHIFAT 1 02 May 23:49:22 23:51:20 13° 94° (E) 23:53:19 145.980
POLYITAN 1 02 May 23:51:13 23:53:52 16° 95° (E) 23:56:27 437.675
JUGNU 02 May 23:51:42 23:53:10 11° 198° (SSW) 23:54:39 437.505
ANTELSAT 02 May 23:51:48 23:56:06 76° 283° (WNW) 00:00:20 437.575/2403.000
RS-15 02 May 23:52:10 00:02:27 39° 311° (NW) 00:13:19 29.354- 29.394
POPSAT HIP 1 02 May 23:53:45 23:56:29 17° 95° (E) 23:59:12 437.405
QB50P1 02 May 23:56:46 23:59:45 19° 95° (E) 00:02:43 145.935-145.965
AISAT 02 May 23:57:34 00:01:51 52° 74° (ENE) 00:06:11 437.250
SPROUT 03 May 00:00:49 00:03:40 18° 69° (ENE) 00:06:32 437.525
HUMSAT D 03 May 00:13:49 00:15:22 12° 267° (W) 00:16:55 437.325/437.525
ESTCUBE 1 03 May 00:15:55 00:20:21 69° 259° (WSW) 00:24:50 437.505/2401.250
O/OREOS (USA 219) 03 May 00:28:38 00:30:28 12° 59° (ENE) 00:32:17 437.305
AIST 1 03 May 00:29:48 00:33:31 29° 91° (E) 00:37:17
BUGSAT 1 03 May 00:30:34 00:33:34 19° 95° (E) 00:36:32 437.445
NANOSAT C BR1 03 May 00:30:41 00:34:46 47° 100° (E) 00:38:49 145.865
50 SAT 03 May 00:31:31 00:35:01 44° 261° (W) 00:38:31 437.505
CUBEBUG 1 03 May 00:34:28 00:38:45 60° 259° (W) 00:43:06 437.445
TISAT 1 03 May 00:36:12 00:37:53 12° 67° (ENE) 00:39:34 437.305
PCSat 03 May 00:37:28 00:40:42 16° 52° (NE) 00:43:55 145.827
UNISAT 6 03 May 00:47:26 00:50:12 17° 291° (WNW) 00:52:56 437.425
SRMSAT 03 May 00:48:46 00:52:34 17° 192° (SSW) 00:56:22 437.500
DX 1 03 May 00:59:07 01:03:01 32° 262° (W) 01:06:57 434.975-435.025
VELOX 1 03 May 01:02:26 01:06:12 27° 263° (W) 01:09:59 145.980
GONETS M04 03 May 01:03:44 01:12:27 68° 92° (E) 01:21:12
UKube-1 03 May 01:05:34 01:09:28 33° 262° (W) 01:13:24 .
TIGRISAT 03 May 01:06:20 01:07:35 11° 294° (WNW) 01:08:49 435.000
Cosmos 2499 03 May 01:09:37 01:15:50 34° 88° (E) 01:22:01 435.465 / 435.565
DUCHIFAT 1 03 May 01:23:16 01:27:09 37° 287° (WNW) 01:31:01 145.980
QB50P2 03 May 01:23:46 01:27:32 32° 287° (WNW) 01:31:16 145.880/145.840
POLYITAN 1 03 May 01:25:57 01:29:41 31° 288° (WNW) 01:33:24 437.675
POPSAT HIP 1 03 May 01:28:35 01:32:16 30° 288° (WNW) 01:35:57 437.405
QB50P1 03 May 01:31:55 01:35:30 27° 288° (WNW) 01:39:02 145.935-145.965
SPROUT 03 May 01:35:31 01:39:21 31° 262° (W) 01:43:13 437.525
AISAT 03 May 01:37:34 01:38:34 11° 267° (W) 01:39:34 437.250
JAS-2 03 May 01:42:07 01:49:26 41° 97° (E) 01:56:35 435.910
ITUPSAT 1 03 May 02:04:17 02:07:59 23° 69° (ENE) 02:11:41 437.325
BUGSAT 1 03 May 02:05:25 02:08:53 26° 289° (WNW) 02:12:17 437.445
O/OREOS (USA 219) 03 May 02:05:47 02:10:09 51° 254° (WSW) 02:14:29 437.305
AIST 1 03 May 02:08:24 02:11:08 16° 285° (WNW) 02:13:53
NANOSAT C BR1 03 May 02:08:46 02:10:02 11° 293° (WNW) 02:11:18 145.865
TISAT 1 03 May 02:09:01 02:13:06 45° 261° (W) 02:17:11 437.305
Gurwin Techsat 1B 03 May 02:09:51 02:11:30 11° 92° (E) 02:13:10 435.225
Oscar 19 03 May 02:12:17 02:17:02 35° 98° (E) 02:21:44 437.125/150
SWISSCUBE 03 May 02:13:06 02:17:18 32° 71° (ENE) 02:21:31 437.505
RS-15 03 May 02:15:40 02:19:55 12° 343° (NNW) 02:24:14 29.354- 29.394
CUSAT 1 03 May 02:15:45 02:22:49 42° 78° (ENE) 02:30:21 437.405
PCSat 03 May 02:19:09 02:24:31 63° 248° (WSW) 02:29:50 145.827
BEESAT 03 May 02:45:41 02:50:24 69° 75° (ENE) 02:55:08 436.000
DANDE 03 May 02:58:28 03:05:07 45° 79° (E) 03:12:53 436.750
Cosmos 2499 03 May 03:02:34 03:08:48 32° 283° (WNW) 03:15:01 435.465 / 435.565
GONETS M04 03 May 03:03:31 03:09:53 22° 289° (WNW) 03:16:17
KKS-1 03 May 03:14:03 03:16:28 15° 67° (ENE) 03:18:55 437.445
AO-7 03 May 03:22:47 03:24:32 11° 92° (E) 03:26:18 29.400- 29.500
JAS-2 03 May 03:27:11 03:34:11 37° 292° (WNW) 03:41:08 435.910
ITAMSAT 1 03 May 03:31:04 03:35:41 32° 98° (E) 03:40:17 435.822/435.867
STARS 03 May 03:31:44 03:32:54 11° 66° (ENE) 03:34:04 437.465
